When you browse on this site, cookies collect data to enhance your experience and personalize the content and advertising you see.
Visit our Privacy Policy to learn more. By continuing to use the site, you agree to this use of cookies and data.
  • In United Kingdom
  • List of Countries
  • For 7 days
  • Water Temperature
  • Satellite Maps
  • Weather Map
  • Weather Widgets
  • user-avatar
    Login

    Hourly Weather Chiquimula

    Today, 26 April, Friday

    Time Temperature Precipitation Wind Pressure Humidity
    00:00 +24°C° 0 mm 0 mps 708 mmHg 78%
    01:00 +23°C° 0 mm 0 mps 708 mmHg 80%
    02:00 +23°C° 0 mm 0 mps 708 mmHg 82%
    03:00 +23°C° 0 mm 0 mps 707 mmHg 84%
    04:00 +22°C° 0.1 mm 0 mps 708 mmHg 84%
    05:00 +22°C° 0.1 mm 0 mps 708 mmHg 85%
    06:00 +24°C° 0.1 mm 1 mps 708 mmHg 85%
    07:00 +27°C° 0 mm 1 mps 709 mmHg 72%
    08:00 +30°C° 0 mm 1 mps 709 mmHg 59%
    09:00 +32°C° 0 mm 2 mps 710 mmHg 46%
    10:00 +35°C° 0 mm 2 mps 710 mmHg 41%
    11:00 +36°C° 0 mm 3 mps 709 mmHg 36%
    12:00 +38°C° 0 mm 3 mps 709 mmHg 30%
    13:00 +38°C° 0 mm 3 mps 709 mmHg 30%
    14:00 +38°C° 0 mm 4 mps 708 mmHg 30%
    15:00 +38°C° 0 mm 4 mps 708 mmHg 30%
    16:00 +36°C° 0 mm 4 mps 708 mmHg 36%
    17:00 +34°C° 0 mm 3 mps 708 mmHg 42%
    18:00 +31°C° 0 mm 3 mps 708 mmHg 48%
    19:00 +30°C° 0 mm 3 mps 708 mmHg 55%
    20:00 +29°C° 0 mm 2 mps 708 mmHg 63%
    21:00 +27°C° 0 mm 2 mps 709 mmHg 70%
    22:00 +27°C° 0.1 mm 2 mps 709 mmHg 73%
    23:00 +26°C° 0.1 mm 2 mps 709 mmHg 75%

    Tomorrow, 27 April, Saturday

    Time Temperature Precipitation Wind Pressure Humidity
    00:00 +26°C° 0.1 mm 2 mps 709 mmHg 78%
    01:00 +25°C° 0.1 mm 2 mps 708 mmHg 80%
    02:00 +25°C° 0.1 mm 1 mps 708 mmHg 81%
    03:00 +24°C° 0.1 mm 1 mps 707 mmHg 83%
    04:00 +24°C° 0 mm 1 mps 708 mmHg 84%
    05:00 +24°C° 0 mm 1 mps 708 mmHg 85%
    06:00 +24°C° 0 mm 1 mps 708 mmHg 86%
    07:00 +26°C° 0 mm 1 mps 709 mmHg 75%
    08:00 +28°C° 0 mm 2 mps 709 mmHg 65%
    09:00 +30°C° 0 mm 2 mps 710 mmHg 55%
    10:00 +32°C° 0 mm 2 mps 709 mmHg 50%
    11:00 +34°C° 0 mm 2 mps 709 mmHg 45%
    12:00 +35°C° 0 mm 3 mps 709 mmHg 40%
    13:00 +36°C° 0 mm 3 mps 708 mmHg 39%
    14:00 +36°C° 0 mm 3 mps 707 mmHg 38%
    15:00 +36°C° 0 mm 3 mps 707 mmHg 37%
    16:00 +35°C° 0 mm 3 mps 707 mmHg 42%
    17:00 +33°C° 0 mm 3 mps 706 mmHg 47%
    18:00 +30°C° 0 mm 3 mps 706 mmHg 52%
    19:00 +29°C° 0 mm 3 mps 707 mmHg 58%
    20:00 +27°C° 0 mm 2 mps 707 mmHg 63%
    21:00 +26°C° 0 mm 1 mps 708 mmHg 68%
    22:00 +25°C° 0 mm 1 mps 708 mmHg 71%
    23:00 +24°C° 0 mm 1 mps 708 mmHg 73%

    Day after tomorrow, 28 April, Sunday

    Time Temperature Precipitation Wind Pressure Humidity
    00:00 +23°C° 0 mm 1 mps 707 mmHg 75%
    01:00 +23°C° 0 mm 1 mps 707 mmHg 76%
    02:00 +22°C° 0 mm 1 mps 706 mmHg 77%
    03:00 +20°C° 0 mm 0 mps 706 mmHg 78%
    04:00 +20°C° 0 mm 0 mps 706 mmHg 77%
    05:00 +20°C° 0 mm 0 mps 706 mmHg 76%
    06:00 +20°C° 0 mm 0 mps 707 mmHg 75%
    07:00 +24°C° 0 mm 0 mps 708 mmHg 60%
    08:00 +28°C° 0 mm 0 mps 709 mmHg 44%
    09:00 +34°C° 0 mm 1 mps 709 mmHg 29%
    10:00 +36°C° 0 mm 1 mps 709 mmHg 25%
    11:00 +37°C° 0 mm 1 mps 709 mmHg 21%
    12:00 +40°C° 0 mm 1 mps 709 mmHg 18%
    13:00 +40°C° 0 mm 2 mps 708 mmHg 17%
    14:00 +39°C° 0 mm 3 mps 707 mmHg 17%
    15:00 +39°C° 0 mm 3 mps 706 mmHg 17%
    16:00 +37°C° 0 mm 3 mps 706 mmHg 22%
    17:00 +35°C° 0 mm 3 mps 706 mmHg 26%
    18:00 +33°C° 0 mm 3 mps 706 mmHg 31%
    19:00 +30°C° 0 mm 2 mps 706 mmHg 40%
    20:00 +28°C° 0 mm 2 mps 707 mmHg 48%
    21:00 +26°C° 0 mm 1 mps 707 mmHg 56%
    22:00 +25°C° 0 mm 1 mps 707 mmHg 63%
    23:00 +24°C° 0 mm 1 mps 707 mmHg 70%

    29 April, Monday

    Time Temperature Precipitation Wind Pressure Humidity
    00:00 +24°C° 0 mm 1 mps 707 mmHg 77%
    01:00 +23°C° 0 mm 1 mps 707 mmHg 79%
    02:00 +23°C° 0 mm 1 mps 707 mmHg 81%
    03:00 +23°C° 0 mm 1 mps 706 mmHg 84%
    04:00 +23°C° 0 mm 1 mps 706 mmHg 83%
    05:00 +23°C° 0 mm 1 mps 707 mmHg 82%
    06:00 +21°C° 0 mm 0 mps 707 mmHg 81%
    07:00 +26°C° 0 mm 1 mps 708 mmHg 68%
    08:00 +29°C° 0 mm 1 mps 709 mmHg 54%
    09:00 +33°C° 0 mm 1 mps 710 mmHg 41%
    10:00 +34°C° 0 mm 1 mps 709 mmHg 37%
    11:00 +37°C° 0 mm 2 mps 709 mmHg 33%
    12:00 +38°C° 0 mm 2 mps 709 mmHg 29%
    13:00 +38°C° 0 mm 3 mps 708 mmHg 30%
    14:00 +38°C° 0 mm 3 mps 707 mmHg 32%
    15:00 +38°C° 0 mm 3 mps 706 mmHg 33%
    16:00 +36°C° 0 mm 3 mps 706 mmHg 39%
    17:00 +34°C° 0 mm 3 mps 706 mmHg 46%
    18:00 +31°C° 0 mm 3 mps 707 mmHg 53%
    19:00 +30°C° 0.1 mm 3 mps 707 mmHg 63%
    20:00 +28°C° 0.1 mm 3 mps 708 mmHg 73%
    21:00 +26°C° 0.1 mm 2 mps 708 mmHg 83%
    22:00 +26°C° 0 mm 2 mps 708 mmHg 84%
    23:00 +25°C° 0 mm 2 mps 708 mmHg 85%

    30 April, Tuesday

    Time Temperature Precipitation Wind Pressure Humidity
    00:00 +25°C° 0 mm 1 mps 708 mmHg 86%
    01:00 +25°C° 0 mm 1 mps 708 mmHg 86%
    02:00 +24°C° 0 mm 1 mps 707 mmHg 86%
    03:00 +24°C° 0 mm 1 mps 707 mmHg 86%
    04:00 +24°C° 0 mm 1 mps 707 mmHg 87%
    05:00 +24°C° 0 mm 1 mps 708 mmHg 87%
    06:00 +23°C° 0 mm 1 mps 708 mmHg 87%
    07:00 +26°C° 0 mm 1 mps 708 mmHg 75%
    08:00 +29°C° 0 mm 1 mps 709 mmHg 63%
    09:00 +31°C° 0 mm 2 mps 710 mmHg 51%
    10:00 +34°C° 0 mm 2 mps 709 mmHg 44%
    11:00 +36°C° 0 mm 2 mps 709 mmHg 37%
    12:00 +37°C° 0 mm 3 mps 709 mmHg 31%
    13:00 +37°C° 0 mm 3 mps 708 mmHg 31%
    14:00 +37°C° 0 mm 3 mps 707 mmHg 31%
    15:00 +37°C° 0 mm 4 mps 706 mmHg 32%
    16:00 +35°C° 0 mm 3 mps 707 mmHg 40%
    17:00 +33°C° 0 mm 3 mps 707 mmHg 47%
    18:00 +31°C° 0 mm 3 mps 707 mmHg 55%
    19:00 +29°C° 0.2 mm 3 mps 707 mmHg 65%
    20:00 +27°C° 0.2 mm 2 mps 708 mmHg 74%
    21:00 +26°C° 0.2 mm 2 mps 708 mmHg 84%
    22:00 +25°C° 0.1 mm 2 mps 708 mmHg 84%
    23:00 +25°C° 0.1 mm 1 mps 708 mmHg 85%

    1 May, Wednesday

    Time Temperature Precipitation Wind Pressure Humidity
    00:00 +25°C° 0.1 mm 1 mps 708 mmHg 86%
    01:00 +24°C° 0 mm 1 mps 708 mmHg 87%
    02:00 +24°C° 0 mm 1 mps 707 mmHg 88%
    03:00 +24°C° 0 mm 1 mps 707 mmHg 90%
    04:00 +24°C° 0 mm 1 mps 707 mmHg 90%
    05:00 +24°C° 0 mm 1 mps 708 mmHg 90%
    06:00 +24°C° 0 mm 1 mps 708 mmHg 90%
    07:00 +26°C° 0 mm 1 mps 709 mmHg 77%
    08:00 +29°C° 0 mm 1 mps 709 mmHg 65%
    09:00 +31°C° 0 mm 2 mps 710 mmHg 52%
    10:00 +34°C° 0 mm 2 mps 709 mmHg 45%
    11:00 +36°C° 0 mm 2 mps 709 mmHg 38%
    12:00 +37°C° 0 mm 3 mps 709 mmHg 31%
    13:00 +37°C° 0 mm 3 mps 708 mmHg 32%
    14:00 +37°C° 0 mm 3 mps 707 mmHg 33%
    15:00 +37°C° 0 mm 3 mps 707 mmHg 34%
    16:00 +35°C° 0.2 mm 3 mps 707 mmHg 43%
    17:00 +33°C° 0.2 mm 3 mps 707 mmHg 52%
    18:00 +30°C° 0.2 mm 3 mps 707 mmHg 60%
    19:00 +28°C° 0.6 mm 3 mps 708 mmHg 68%
    20:00 +27°C° 0.6 mm 2 mps 708 mmHg 76%
    21:00 +26°C° 0.6 mm 2 mps 708 mmHg 83%
    22:00 +25°C° 0.4 mm 2 mps 708 mmHg 85%
    23:00 +25°C° 0.4 mm 1 mps 708 mmHg 86%
    Show more